Location: Recife
(8.0585°S, 34.8848°W)
Time: 08:21:07
(UTC-03:00)

Courier 1B - Pass Details

Date: 19 April 2026
Orbit: 962 x 1209 km, 28.3° (Epoch: 13 May)

Event Time Altitude Azimuth Distance (km) Brightness Sun altitude
Rises 13:14:09 0° 240° (WSW) 4,051 10.9 55.3°
Reaches altitude 10° 13:17:02 10° 239° (WSW) 3,059 10.4 54.7°
Maximum altitude 13:24:37 83° 151° (SSE) 1,117 8.7 53.2°
Drops below altitude 10° 13:31:42 10° 63° (ENE) 2,866 9.9 51.6°
Sets 13:34:19 0° 63° (ENE) 3,783 10.4 51.1°
